This demonstration page uses our WeatherBlox Daily Observations layout. Learn more.

Left ArrowRight Arrow

53.62937, 11.41316

Hourly Observations for September 25, 2022

Temp ( °F °C ) Dew Point ( °F °C ) Humidity (%) Winds ( mph kmh ) Pressure ( in mb ) Visibility ( mi km ) Precip ( " mm )
12:20 am 00:20 Cloudy 54 12 54 12 100 100 ENE 3 6 29.91 1013 3 5 0.00 0.00
12:50 am 00:50 Cloudy 54 12 54 12 100 100 E 2 4 29.88 1012 3 5 0.00 0.00
1:20 am 01:20 Cloudy 54 12 54 12 100 100 E 3 6 29.88 1012 3 5 0.00 0.00
1:50 am 01:50 Cloudy 54 12 52 11 94 94 E 3 6 29.88 1012 3 5 0.00 0.00
2:20 am 02:20 Cloudy 54 12 54 12 100 100 NE 2 4 29.88 1012 3 5 0.00 0.00
2:50 am 02:50 Cloudy 54 12 52 11 94 94 VRB 2 4 29.88 1012 3 5 0.00 0.00
3:20 am 03:20 Mostly Cloudy 54 12 54 12 100 100 VRB 2 4 29.88 1012 3 5 0.00 0.00
3:50 am 03:50 Cloudy 54 12 54 12 100 100 E 2 4 29.88 1012 3 5 0.00 0.00
4:20 am 04:20 Cloudy 54 12 54 12 100 100 VRB 1 2 29.88 1012 3 5 0.00 0.00
4:50 am 04:50 Cloudy 54 12 54 12 100 100 VRB 2 4 29.88 1012 3 5 0.00 0.00
5:20 am 05:20 Mostly Cloudy 54 12 54 12 100 100 VRB 2 4 29.88 1012 3 5 0.00 0.00
5:50 am 05:50 Cloudy 54 12 54 12 100 100 E 2 4 29.88 1012 3 5 0.00 0.00
6:20 am 06:20 Mostly Cloudy with Mist and Fog 54 12 54 12 100 100 E 2 4 29.88 1012 3 5 0.00 0.00
6:50 am 06:50 Cloudy with Mist and Fog 54 12 54 12 100 100 NE 2 4 29.88 1012 3 5 0.00 0.00
7:20 am 07:20 Cloudy with Mist and Fog 54 12 54 12 100 100 Calm 29.88 1012 2 3 0.00 0.00
7:50 am 07:50 Cloudy with Mist and Fog 54 12 54 12 100 100 VRB 1 2 29.88 1012 2 4 0.00 0.00
8:20 am 08:20 Cloudy with Mist and Fog 54 12 54 12 100 100 Calm 29.88 1012 3 5 0.00 0.00
8:50 am 08:50 Mostly Cloudy with Mist and Fog 54 12 54 12 100 100 VRB 2 4 29.88 1012 3 5 0.00 0.00
9:20 am 09:20 Mostly Cloudy 55 13 54 12 94 94 VRB 2 4 29.88 1012 4 6 0.00 0.00
9:50 am 09:50 Cloudy 55 13 54 12 94 94 VRB 2 4 29.88 1012 4 7 0.00 0.00
10:20 am 10:20 Mostly Cloudy 55 13 54 12 94 94 VRB 2 4 29.88 1012 4 7 0.00 0.00
10:50 am 10:50 Cloudy 57 14 52 11 82 82 NE 3 6 29.88 1012 5 8 0.00 0.00
11:20 am 11:20 Cloudy 57 14 54 12 88 88 NW 3 6 29.88 1012 6 9 0.00 0.00
11:50 am 11:50 Cloudy 57 14 54 12 88 88 VRB 2 4 29.85 1011 6 10 0.00 0.00
12:20 pm 12:20 Cloudy 57 14 54 12 88 88 VRB 1 2 29.85 1011 6 10 0.00 0.00
12:50 pm 12:50 Mostly Cloudy 57 14 54 12 88 88 NW 5 7 29.85 1011 6 10 0.00 0.00
1:20 pm 13:20 Mostly Cloudy 57 14 54 12 88 88 WNW 6 9 29.85 1011 6 10 0.00 0.00
1:50 pm 13:50 Mostly Cloudy 57 14 54 12 88 88 WNW 6 9 29.85 1011 6 10 0.00 0.00
2:20 pm 14:20 Mostly Cloudy 57 14 54 12 88 88 WNW 7 11 29.85 1011 6 10 0.00 0.00
2:50 pm 14:50 Cloudy 55 13 54 12 94 94 WNW 7 11 29.85 1011 6 10 0.00 0.00
3:20 pm 15:20 Cloudy with Light Rain 55 13 54 12 94 94 WNW 8 13 29.85 1011 4 6 0.00 0.00
3:50 pm 15:50 Mostly Cloudy with Light Rain 55 13 54 12 94 94 WNW 7 11 29.85 1011 1 2 0.00 0.00
4:20 pm 16:20 Mostly Cloudy with Light Rain 54 12 54 12 100 100 WNW 7 11 29.82 1010 4 6 0.00 0.00
4:50 pm 16:50 Mostly Cloudy with Light Rain 54 12 54 12 100 100 WNW 6 9 29.82 1010 4 7 0.00 0.00
5:20 pm 17:20 Partly Cloudy with Light Rain 54 12 52 11 94 94 W 5 7 29.82 1010 6 10 0.00 0.00
5:50 pm 17:50 Mostly Sunny 54 12 52 11 94 94 W 5 7 29.82 1010 6 10 0.00 0.00
6:20 pm 18:20 Partly Cloudy 55 13 54 12 94 94 W 5 7 29.82 1010 6 10 0.00 0.00
6:50 pm 18:50 Partly Cloudy 55 13 54 12 94 94 VRB 3 6 29.82 1010 6 10 0.00 0.00
7:20 pm 19:20 Mostly Clear 54 12 52 11 94 94 WSW 3 6 29.82 1010 6 10 0.00 0.00
7:50 pm 19:50 Mostly Clear 54 12 52 11 94 94 VRB 1 2 29.79 1009 6 10 0.00 0.00
8:20 pm 20:20 Mostly Clear 52 11 50 10 94 94 VRB 3 6 29.79 1009 6 10 0.00 0.00
8:50 pm 20:50 Mostly Clear 52 11 50 10 94 94 WSW 3 6 29.79 1009 6 10 0.00 0.00
9:20 pm 21:20 Clear 50 10 48 9 93 93 WSW 3 6 29.79 1009 6 10 0.00 0.00
9:50 pm 21:50 Clear 48 9 48 9 100 100 VRB 2 4 29.79 1009 6 10 0.00 0.00
10:20 pm 22:20 Clear 48 9 46 8 93 93 VRB 2 4 29.79 1009 6 10 0.00 0.00
10:50 pm 22:50 Clear 48 9 46 8 93 93 VRB 2 4 29.79 1009 6 10 0.00 0.00
11:20 pm 23:20 Clear 46 8 46 8 100 100 VRB 2 4 29.77 1008 6 10 0.00 0.00
11:50 pm 23:50 Clear 46 8 46 8 100 100 VRB 2 4 29.77 1008 6 10 0.00 0.00

Powered by AerisWeather